TimeCDT,TemperatureF,Dew PointF,Humidity,Sea Level PressureIn,VisibilityMPH,Wind Direction,Wind SpeedMPH,Gust SpeedMPH,PrecipitationIn,Events,Conditions,WindDirDegrees,DateUTC
12:53 AM,55.9,46.0,69,29.42,10.0,South,8.1,-,N/A,,Clear,170,2012-10-17 05:53:00
1:53 AM,57.9,46.0,65,29.39,10.0,South,11.5,-,N/A,,Clear,180,2012-10-17 06:53:00
2:53 AM,57.0,48.9,74,29.39,10.0,South,6.9,-,0.00,,Clear,190,2012-10-17 07:53:00
3:30 AM,62.6,48.2,59,29.49,10.0,WNW,21.9,34.5,N/A,,Squalls,300,2012-10-17 08:30:00
3:53 AM,61.0,46.9,60,29.43,10.0,WSW,3.5,-,N/A,,Scattered Clouds,250,2012-10-17 08:53:00
4:53 AM,63.0,45.0,52,29.43,10.0,NNW,10.4,-,N/A,,Clear,330,2012-10-17 09:53:00
5:53 AM,64.0,43.0,46,29.45,10.0,NNW,11.5,-,N/A,,Mostly Cloudy,340,2012-10-17 10:53:00
6:53 AM,61.0,44.1,54,29.49,10.0,North,20.7,29.9,N/A,,Mostly Cloudy,360,2012-10-17 11:53:00
7:53 AM,57.9,43.0,58,29.55,10.0,NNW,21.9,28.8,0.00,,Clear,340,2012-10-17 12:53:00
8:53 AM,59.0,42.1,53,29.61,10.0,NNW,18.4,26.5,N/A,,Clear,330,2012-10-17 13:53:00
9:53 AM,59.0,42.1,53,29.65,10.0,NNW,17.3,26.5,N/A,,Clear,330,2012-10-17 14:53:00
10:53 AM,63.0,39.0,41,29.65,10.0,NNW,25.3,38.0,N/A,,Scattered Clouds,330,2012-10-17 15:53:00
11:53 AM,64.9,34.0,32,29.64,10.0,NNW,23.0,38.0,N/A,,Clear,330,2012-10-17 16:53:00
12:53 PM,66.0,28.0,24,29.65,10.0,NNW,24.2,35.7,N/A,,Clear,330,2012-10-17 17:53:00
1:53 PM,66.9,26.1,21,29.65,10.0,NW,29.9,35.7,N/A,,Clear,320,2012-10-17 18:53:00
2:53 PM,64.9,26.1,23,29.66,10.0,NNW,27.6,36.8,N/A,,Clear,330,2012-10-17 19:53:00
3:53 PM,66.0,24.1,20,29.67,10.0,NW,27.6,42.6,N/A,,Mostly Cloudy,320,2012-10-17 20:53:00
4:53 PM,62.1,25.0,24,29.70,10.0,NW,17.3,-,N/A,,Partly Cloudy,310,2012-10-17 21:53:00
5:53 PM,62.1,17.1,18,29.71,10.0,NW,23.0,35.7,N/A,,Partly Cloudy,320,2012-10-17 22:53:00
6:53 PM,59.0,16.0,19,29.74,10.0,NW,19.6,27.6,N/A,,Clear,320,2012-10-17 23:53:00
7:53 PM,55.0,19.0,24,29.77,10.0,NW,11.5,-,N/A,,Clear,310,2012-10-18 00:53:00
8:53 PM,48.9,19.9,32,29.78,10.0,WNW,6.9,-,N/A,,Clear,290,2012-10-18 01:53:00
9:53 PM,43.0,24.1,47,29.80,10.0,WSW,6.9,-,N/A,,Clear,240,2012-10-18 02:53:00
10:53 PM,43.0,25.0,49,29.82,10.0,West,10.4,-,N/A,,Clear,260,2012-10-18 03:53:00
11:53 PM,44.1,25.0,47,29.83,10.0,West,8.1,-,N/A,,Scattered Clouds,270,2012-10-18 04:53:00